COSMOS 1691 DEB, 43314

Orbit data source: Space-Track

COSMOS 1691 DEB, 43314 is space debris in LEO originally from a launch on Wed, 09 Oct 1985 UTC launched from the Plesetsk Missile And Space Complex (PKMTR). Debris objects in space refer to the collection of defunct objects orbiting the Earth. Examples of debris include non-operational satellites, rocket bodies, and fragments generated from explosions, collisions, or faulty payload assembly.

Loading next visibility...
Identifier
43314, 1985-094Y
Orbit
LEO
Country
Flag of CISCIS
Related business
Manufacturer
Unknown
Mission
Spacecraft
Bus & Motor
Unknown
Mass
Unknown
Launch date (UTC)
1985-10-09 (40 years ago)
Launch vehicle
Unknown
Launch site
Plesetsk Missile And Space Complex (PKMTR)
Object type
Payload
Rocket body
Debris
Shape & HBR
Unknown shape, 0.1 m
Radar Cross Section
Small (<0.1 m²)

Expand to show TLE details & history
Last TLE update: 16 hours ago

TLE from 16 hours ago
0 COSMOS 1691 DEB
1 43314U 85094Y   25294.96806690  .00000715  00000-0  31340-2 0  9993
2 43314  82.5571 191.5999 0041907  58.0639 302.4527 12.78806461555360
Epoch: 2025-10-21T23:14Z
TLE epoch observation values (Epoch: 2025-10-21T23:14:00.980Z)
Latitude
0.00007°
Longitude
172.4474°
Altitude
1,331.749 km
Speed
7.2 km/s
True Right ascension
12h 46m 23s
True Declination
0° 00' 00"
Sunlit
Object was in daylight at epoch
Visualization orbit readout
Latitude
Unknown
Longitude
Unknown
Altitude
Unknown
Speed
Unknown
Apparent Right ascension
Unknown
Apparent Declination
Unknown
Sunlit
N/A
Visualization observer readout
Local Sidereal Time
10:03:47
Azimuth
Unknown
Elevation
Unknown
Doppler factor
Unknown
Orbital elements
Apogee altitude
1,375.93 km
Perigee altitude
1,311.211 km
Semi-major axis
7,721.708 km
Eccentricity
0.00419
Inclination
82.5571°
RAAN
191.5999°
Arg. of periapsis
58.0639°
True anomaly
302.04634°
Mean anomaly
302.4527°
Eccentric anomaly
302.24963°
Mean motion
3.1987 °/min
Orbital period
112.55 mins
BSTAR
0.003134
Loading maneuver chart data...
Computing Atmospheric mass density...
Loading historical data...
Loading historical data...
Loading historical data...
Loading historical data...
Loading historical data...
Loading historical data...
Loading historical data...

Documentation

Showing up to 5 results
|